Weather History for KBMG - December, 2009

Change the Weather History Date:

Tuesday, December 29, 2009

  Actual Average Record
Temperature  
Mean Temperature 21 °F 30 °F  
Max Temperature 31 °F 38 °F 59 °F (2006)
Min Temperature 10 °F 21 °F 12 °F (2000)
Degree Days  
Heating Degree Days 44 35  
Month to date heating degree days 966 946  
Since 1 July heating degree days 1996 2002  
Cooling Degree Days 0 0  
Month to date cooling degree days 0 0  
Year to date cooling degree days 739 927  
Moisture  
Dew Point 16 °F    
Average Humidity 75    
Maximum Humidity 92    
Minimum Humidity 58    
Precipitation  
Precipitation 0.00 in 0.12 in 0.48 in (2003)
Month to date precipitation 3.27 3.28  
Year to date precipitation 50.11 47.29  
Sea Level Pressure  
Sea Level Pressure 30.42 in    
Wind  
Wind Speed 2 mph (WNW)    
Max Wind Speed 10 mph    
Max Gust Speed 16 mph    
Visibility 9 miles    
Events      
T = Trace of Precipitation, MM = Missing Value Source: NWS Daily Summary

Daily Weather History Graph

Daily Weather History Graph

Search for Another Location

Airport or City:

Trip Planner

Search our weather history database for the weather conditions in past years. The results will help you decide how hot, cold, wet, or windy it might be!

Date:

Astronomy

Dec. 29, 2009 Rise Set
Actual Time 8:05 AM EST 5:32 PM EST
Civil Twilight 7:35 AM EST 6:02 PM EST
Nautical Twilight 7:01 AM EST 6:35 PM EST
Astronomical Twilight 6:29 AM EST 7:08 PM EST
Moon 3:19 PM EST (12/29) 5:55 AM EST (12/29)
Length of Visible Light 10h 26m
Length of Day
9h 26m
Waxing Gibbous, 94% of the Moon is Illuminated
Dec 29
Waxing Gibbous
Dec 31
Full
Jan 7
Last Quarter
Jan 15
New
Jan 23
First Quarter

Hourly Weather History & Observations

Time (EST) Temp. Windchill Dew Point Humidity Pressure Visibility Wind Dir Wind Speed Gust Speed Precip Events Conditions
12:53 AM 26.1 °F 21.9 °F 16.0 °F 66% 30.33 in 10.0 mi Variable 3.5 mph - N/A   Overcast
1:53 AM 26.1 °F 20.5 °F 15.1 °F 63% 30.35 in 10.0 mi NW 4.6 mph - N/A   Overcast
2:19 AM 24.8 °F 17.9 °F 17.6 °F 74% 30.32 in 10.0 mi WNW 5.8 mph - N/A   Overcast
2:40 AM 23.0 °F 17.0 °F 15.8 °F 74% 30.34 in 10.0 mi WNW 4.6 mph - N/A   Scattered Clouds
2:53 AM 23.0 °F 14.7 °F 16.0 °F 74% 30.37 in 10.0 mi WNW 6.9 mph - N/A   Clear
3:53 AM 19.9 °F 12.1 °F 15.1 °F 81% 30.40 in 10.0 mi West 5.8 mph - N/A   Clear
4:53 AM 17.1 °F 11.7 °F 14.0 °F 88% 30.41 in 10.0 mi WNW 3.5 mph - N/A   Clear
5:53 AM 18.0 °F 12.7 °F 14.0 °F 84% 30.42 in 9.0 mi North 3.5 mph - N/A   Clear
6:53 AM 12.0 °F - 9.0 °F 88% 30.44 in 7.0 mi Calm Calm - N/A   Clear
7:53 AM 10.9 °F - 8.1 °F 88% 30.46 in 6.0 mi Calm Calm - N/A   Clear
8:53 AM 12.9 °F - 10.9 °F 92% 30.48 in 4.0 mi Calm Calm - N/A   Clear
9:53 AM 18.0 °F - 16.0 °F 92% 30.50 in 8.0 mi Calm Calm - N/A   Clear
10:53 AM 23.0 °F - 15.1 °F 72% 30.51 in 10.0 mi Calm Calm - N/A   Clear
11:53 AM 25.0 °F - 17.1 °F 72% 30.50 in 10.0 mi Calm Calm - N/A   Clear
12:53 PM 28.9 °F - 17.1 °F 61% 30.48 in 10.0 mi Calm Calm - N/A   Clear
1:53 PM 28.9 °F - 17.1 °F 61% 30.44 in 10.0 mi Calm Calm - N/A   Clear
2:53 PM 30.9 °F - 17.1 °F 57% 30.42 in 10.0 mi Calm Calm - N/A   Clear
3:53 PM 30.9 °F 27.5 °F 17.1 °F 57% 30.42 in 10.0 mi SSE 3.5 mph - N/A   Clear
4:53 PM 28.9 °F 25.2 °F 18.0 °F 64% 30.41 in 10.0 mi South 3.5 mph - N/A   Clear
5:53 PM 26.1 °F - 19.0 °F 75% 30.43 in 10.0 mi Calm Calm - N/A   Clear
6:53 PM 23.0 °F - 17.1 °F 78% 30.43 in 10.0 mi Calm Calm - N/A   Clear
7:53 PM 21.0 °F - 17.1 °F 85% 30.44 in 10.0 mi Calm Calm - N/A   Clear
8:53 PM 21.0 °F - 18.0 °F 88% 30.43 in 10.0 mi Calm Calm - N/A   Clear
9:53 PM 21.9 °F - 18.0 °F 85% 30.42 in 10.0 mi Calm Calm - N/A   Clear
10:53 PM 23.0 °F 18.4 °F 18.0 °F 81% 30.39 in 10.0 mi ESE 3.5 mph - N/A   Clear
11:53 PM 24.1 °F 18.2 °F 18.0 °F 77% 30.36 in 10.0 mi ESE 4.6 mph - N/A   Clear